Regional Weather Roundup
Issued by NWS Northern Indiana

Home | Current Version | Previous Version | Graphics & Text | Print | Product List | Glossary On
Versions: 1 2 3 4 5 6 7 8 9 10 11 12 13 14 15 16 17 18 19 20 21 22 23 24 25 26 27 28 29 30 31 32 33 34 35 36 37 38 39 40 41 42 43 44 45 46 47 48 49 50
000
ASUS43 KIWX 301700
RWRIWX

KIWX WEATHER ROUNDUP
NATIONAL WEATHER SERVICE NORTHERN INDIANA
100 PM EDT MON MAY 30 2016

NOTE: "FAIR" INDICATES FEW OR NO CLOUDS BELOW 12,000 FEET WITH NO
SIGNIFICANT WEATHER AND/OR OBSTRUCTIONS TO VISIBILITY.

* THESE STATIONS ARE NOT UNDER NWS QUALITY CONTROL. THEY ALSO MAY NOT
  REPORT WEATHER SUCH AS PRECIPITATION OR FOG.

INZ001>027-301800-
NORTHERN INDIANA

CITY           SKY/WX    TMP DP  RH WIND       PRES   REMARKS
GARY*          MOSUNNY   81  66  61 NE12      30.03F
SOUTH BEND     SUNNY     81  57  43 NW8G20    30.04F
ELKHART*       MOSUNNY   82  63  51 NW8       30.04F
GOSHEN         MOSUNNY   82  58  43 W10G16    30.03F
ANGOLA*          N/A     84  79  84 NW10      30.04R HX  96
FORT WAYNE     CLOUDY    82  55  39 NW9       30.04F
PERU/GRISSOM   SUNNY     83  57  41 NW13      30.03F

$$
INZ028>050-301800-
CENTRAL INDIANA

CITY           SKY/WX    TMP DP  RH WIND       PRES   REMARKS
LAFAYETTE      MOSUNNY   83  53  35 NW5       30.03F
KOKOMO*        SUNNY     84  55  37 NW8G17    30.04F
MUNCIE*        MOSUNNY   84  54  35 NW7       30.05F
INDIANAPOLIS   MOSUNNY   83  55  38 W8        30.05S

$$
MIZ043>046-050>051-056>058-064>065-071>073-077>080-301800-
SOUTHWEST LOWER MICHIGAN

CITY           SKY/WX    TMP DP  RH WIND       PRES   REMARKS
BATTLE CREEK   MOSUNNY   78  56  46 VRB7      30.04R
BENTON HARBOR  SUNNY     74  61  63 W8        30.05R
COLDWATER*     MOSUNNY   81  53  37 NW8       30.04R
HILLSDALE*     MOSUNNY   80  44  28 W9        30.04S
HOLLAND        SUNNY     78  58  49 W9        30.05R
GRAND RAPIDS   MOSUNNY   81  57  43 W13       30.02S
KALAMAZOO      SUNNY     80  54  40 NW12      30.04R
STURGIS*       PTSUNNY   80  56  42 NW7G18    30.03S
THREE RIVERS*  FAIR      81  54  38 W7G20     30.04S

$$
OHZ001>008-015>018-024>025-301800-
NORTHWEST OHIO

CITY           SKY/WX    TMP DP  RH WIND       PRES   REMARKS
DEFIANCE       MOSUNNY   83  52  34 NW10G17   30.03S
FINDLAY        PTSUNNY   81  53  37 W6        30.03S
TOLEDO EXPRESS PTSUNNY   83  55  38 W6        30.01S
TOLEDO METCALF MOSUNNY   82  56  40 SW9       30.02S
LIMA           MOSUNNY   81  57  43 W9        30.06S

$$
AND FOR LAKE MICHIGAN COASTAL AND OPEN LAKE BUOY OBSERVATIONS

STATION/POSITION TEMP    WIND        PRES    VSBY  WAVE
                 AIR SEA DIR/SP/G                  HT/PER
                 (F)     (DEG/KT/KT) (MB)    (MI)  (FT/S)
CALUMET HARBOR    74      60/  6/ 10 1016.5R
MICHIGAN CITY     71     270/  5/  5   N/A
BURNS HARBOR      72      20/  4/  4 1017.9R
SAINT JOSEPH      68     210/  6/  6 1017.9F
SOUTH LAKE BUOY   60 54  180/  2/  2 1016.5          0
4 MI NW BRIDGMAN  64 63  250/  4/  4   N/A           1
MICHIGAN CITY     67 60  260/  2/  2   N/A           0

$$
&&




USA.gov is the U.S. government's official web portal to all federal, state and local government web resources and services.